Probability
0 0 0 0 0 0 0 0 0 0 0 0 0 0 0 0 0 0 0 0 0 0 0 0 0 0 0 0 0 0 0 0 0 0 0 0 0 0 0 0 0 0 0
0 0 0 0 0 0 0 0 0 0 0 0 0 0 0 0 0 0 0 0 0 0 0 0 0 0 0 0 0 0 0 0 0 0 0 0 0 0 0 0 0 0 0
0 0 0 0 0 0 0 0 0 0 0 0 0 0 0 0 0 0 0 0 0 0 0 0 0 0 0 0 0 0 0 0 0 0 0 0 0 0 0 0 0 0 0
0 0 0 0 0 0 0 0 0 0 0 0 0 0 0 0 0 0 0 0 0 0 0 0 0 0 0 0 0 0 0 0 0 0 0 0 0 0 0 0 0 0 0
0 0 0 0 0 0 0 0 0 0 0 0 0 0 0 0 0 0 0 0 0 0 0 0 0 0 0 0 0 0 0 0 0 0 0 0 0 0 0 0 0 0 0
0 0 0 0 0 0 0 0 0 0 0 0 0 0 0 0 0 0 0 0 0 0 0 0 0 0 0 0 0 0 0 0 0 0 0 0 0 0 0 0 0 0 0
0 0 0 0 0 0 0 0 0 0 0 0 0 0 0 0 0 0 0 0 0 0 0 0 0 0 0 0 0 0 0 0 0 0 0 0 0 0 0 0 0 0 0
0 0 0 0 0 0 0 0 0 0 0 0 0 0 0 0 0 0 0 0 0 0 0 0 0 0 0 0 0 0 0 0 0 0 0 0 0 0 0 0 0 0 0
0 0 0 0 0 0 0 0 0 0 0 0 0 0 0 0 0 0 0 0 0 0 0 0 0 0 0 0 0 0 0 0 0 0 0 0 0 0 0 0 0 0 0
0 0 0 0 0 0 0 0 0 0 0 0 0 0 0 0 0 0 0 0 0 0 0 0 0 0 0 0 0 0 0 0 0 0 0 0 0 0 0 0 0 0 0
0 0 0 0 0 0 0 0 0 0 0 0 0 0 0 0 0 0 0 0 0 0 0 0 0 0 0 0 0 0 0 0 0 0 0 0 0 0 0 0 0 0 0
0 0 0 0 0 0 0 0 0 0 0 0 0 0 0 0 0 0 0 0 0 0 0 0 0 0 0 0 0 0 0 0 0 0 0 0 0 0 0 0 0 0 0
0 0 0 0 0 0 0 0 0 0 0 0 0 0 0 0 0 0 0 0 0 0 0 0 0 0 0 0 0 0 0 0 0 0 0 0 0 0 0 0 0 0 0
0 0 0 0 0 0 0 0 0 0 0 0 0 0 0 0 0 0 0 0 0 0 0 0 0 0 0 0 0 0 0 0 0 0 0 0 0 0 0 0 0 0 0
0 0 0 0 0 0 0 0 0 0 0 0 0 0 0 0 0 0 0 0 0 0 0 0 0 0 0 0 0 0 0 0 0 0 0 0 0 0 0 0 0 0 0
0 0 0 0 0 0 0 0 0 0 0 0 0 0 0 0 0 0 0 0 0 0 0 0 0 0 0 0 0 0 0 0 0 0 0 0 0 0 0 0 0 0 0
0 0 0 0 0 0 0 0 0 0 0 0 0 0 0 0 0 0 0 0 0 0 0 0 0 0 0 0 0 0 0 0 0 0 0 0 0 0 0 0 0 0 0
0 0 0 0 0 0 0 0 0 0 0 0 0 0 0 0 0 0 0 0 0 0 0 0 0 0 0 0 0 0 0 0 0 0 0 0 0 0 0 0 0 0 0
0 0 0 0 0 0 0 0 0 0 0 0 0 0 0 0 0 0 0 0 0 0 0 0 0 0 0 0 0 0 0 0 0 0 0 0 0 0 0 0 0 0 0
0 0 0 0 0 0 0 0 0 0 0 0 0 0 0 0 0 0 0 0 0 0 0 0 0 0 0 0 0 0 0 0 0 0 0 0 0 0 0 0 0 0 0
0 0 0 0 0 0 0 0 0 0 0 0 0 0 0 0 0 0 0 0 0 0 0 0 0 0 0 0 0 0 0 0 0 0 0 0 0 0 0 0 0 0 0
0 0 0 0 0 0 0 0 0 0 0 0 0 0 0 0 0 0 0 0 0 0 0 0 0 0 0 0 0 0 0 0 0 0 0 0 0 0 0 0 0 0 0
0 0 0 0 0 0 0 0 0 0 0 0 0 0 0 0 0 0 0 0 0 0 0 0 0 0 0 0 0 0 0 0 0 0 0 0 0 0 0 0 0 0 0
0 0 0 0 0 0 0 0 0 0 0 0 0 0 0 0 0 0 0 0 0 0 0 0 0 0 0 0 0 0 0 0 0 0 0 0 0 0 0 0 0 0 0
0 0 0 0 0 0 0 0 0 0 0 0 0 0 0 0 0 0 0 0 0 0 0 0 0 0 0 0 0 0 0 0 0 0 0 0 0 0 0 0 0 0 0
0 0 0 0 0 0 0 0 0 0 0 0 0 0 0 0 0 0 0 0 0 0 0 0 0 0 0 0 0 0 0 0 0 0 0 0 0 0 0 0 0 0 0
Wind_Speed
5 5 5 6 6 6 5 6 6 7 8 8 8 8 8 7 6 6 7 7 8 8 8 9 10 8 7 6 6 5 5 6 6 5 4 5 11 10 10 9 8 9 9
4 4 5 5 5 6 6 6 6 7 7 7 8 8 7 7 7 7 8 8 8 9 9 10 10 8 10 8 7 8 7 6 6 6 5 5 8 13 11 10 8 8 7
2 4 5 4 5 5 6 6 7 7 7 7 7 7 8 8 8 8 8 9 9 10 10 11 11 10 12 9 9 9 7 6 5 6 6 4 3 9 10 7 8 6 8
3 4 5 5 5 6 6 6 7 7 8 8 8 8 8 8 9 9 9 9 10 11 12 12 12 12 13 12 11 11 9 9 7 5 5 5 4 7 10 9 8 8 7
4 6 7 7 7 7 8 7 7 7 9 8 9 9 9 8 8 9 9 9 11 12 12 13 13 15 17 14 12 11 11 10 9 8 5 5 7 10 13 11 10 7 6
4 6 7 8 9 9 9 9 9 9 9 9 10 10 11 10 16 21 16 11 12 13 14 14 13 14 18 23 24 21 19 17 16 14 12 10 14 11 11 11 11 8 8
5 7 8 9 10 11 11 10 11 10 10 12 12 11 13 15 25 26 23 15 14 14 15 14 13 12 14 14 19 25 25 30 28 19 18 17 13 14 17 16 16 12 10
7 8 8 9 10 10 10 11 11 10 12 14 15 14 16 19 27 29 28 18 15 16 16 17 17 16 14 15 13 15 18 20 24 21 18 14 11 13 18 17 16 9 4
8 8 8 8 9 11 12 13 12 13 14 15 16 16 17 21 29 31 31 15 15 18 17 17 18 19 23 27 19 18 19 19 25 25 20 14 14 20 20 11 11 11 6
8 9 10 10 11 13 15 16 15 15 18 19 19 18 18 20 29 35 35 16 17 17 16 17 21 25 27 28 21 19 22 20 13 14 19 19 14 17 28 21 17 15 8
9 11 11 11 11 14 15 15 15 17 19 19 21 21 20 22 29 36 37 20 17 18 16 15 15 27 30 31 28 20 25 19 11 14 14 11 10 10 14 15 13 12 13
10 11 12 11 12 12 13 15 14 15 18 18 18 20 16 18 23 27 34 33 30 21 18 15 16 28 29 30 25 26 31 25 11 12 14 15 15 14 10 10 9 5 4
10 11 12 13 11 11 13 15 14 13 13 15 15 16 16 14 17 29 32 34 35 25 18 25 28 31 30 24 27 30 22 15 13 14 15 16 13 10 8 8 8 6 6
11 13 13 13 13 12 11 12 12 12 14 15 15 16 16 15 14 14 14 17 23 23 19 17 23 27 26 22 16 18 15 13 14 14 12 9 8 9 10 10 9 10 9
13 14 14 13 14 13 12 11 15 14 17 19 16 16 18 17 18 28 23 16 15 18 20 16 12 11 12 13 12 12 12 13 14 12 11 11 11 12 10 10 9 10 9
13 13 12 12 12 13 14 14 22 26 31 35 34 32 23 29 36 37 36 36 36 35 26 16 15 12 12 12 11 11 11 12 12 12 12 12 12 12 11 9 10 10 9
12 14 12 13 13 13 14 15 16 19 26 31 34 35 33 34 36 35 34 34 33 32 21 15 14 13 11 10 9 9 10 10 10 11 11 11 12 12 12 12 11 11 9
11 13 13 12 12 13 14 14 15 16 17 16 21 30 32 32 32 32 32 27 18 17 14 14 13 12 9 8 8 7 8 8 9 10 11 12 12 13 13 13 12 12 10
11 10 10 11 12 13 13 14 14 16 16 16 15 18 22 25 28 28 26 13 11 11 11 11 11 11 8 7 7 7 7 8 9 10 10 12 12 12 12 12 12 14 11
9 14 13 11 11 12 12 13 13 14 15 14 14 14 13 13 12 13 12 10 9 9 9 8 7 7 7 7 6 7 7 8 10 9 9 10 10 11 12 13 12 12 10
9 10 12 11 10 11 11 12 13 13 13 13 13 16 25 13 11 12 11 11 10 9 7 5 3 4 5 5 6 8 9 8 8 8 9 9 10 10 10 10 11 10 10
7 8 8 9 9 10 11 11 11 12 12 13 12 14 20 12 10 10 11 11 11 11 8 4 3 3 3 3 5 7 7 8 8 9 9 9 10 10 11 11 11 10 10
6 8 8 8 8 11 11 10 10 11 11 11 12 11 11 10 10 11 11 11 11 11 11 10 9 8 8 7 6 5 7 8 8 10 11 11 10 11 11 12 13 12 11
6 7 8 8 8 8 9 10 10 11 11 11 10 10 10 10 10 11 11 11 11 11 11 10 11 12 13 10 8 7 6 7 7 8 11 11 11 11 10 11 11 13 11
5 6 6 6 7 8 8 9 10 10 10 10 10 10 11 10 10 11 10 10 11 11 13 12 10 10 13 13 10 8 10 11 10 8 8 9 11 11 11 12 10 10 9
5 5 5 5 6 7 8 8 9 10 10 10 10 10 10 10 10 10 10 10 10 10 10 10 13 13 13 11 12 12 12 13 13 12 8 8 10 10 10 9 10 9 8
Wind_Direction
12 5 4 2 1 358 1 356 346 340 339 337 333 327 318 303 284 270 261 256 251 248 241 240 241 235 235 228 219 209 201 181 191 188 172 166 172 183 185 180 182 182 193
3 351 345 347 348 346 344 339 334 331 328 325 325 323 318 310 296 278 267 259 253 252 248 244 242 233 234 224 217 217 213 200 174 168 171 161 181 186 180 182 185 184 185
351 337 327 329 331 326 324 322 320 318 314 312 313 312 309 305 297 284 271 263 255 251 248 247 244 233 234 224 217 217 216 213 194 163 168 161 160 175 171 179 188 187 192
347 337 325 320 317 310 304 298 298 300 301 301 300 296 293 293 291 286 281 271 264 258 252 250 246 239 236 226 222 218 210 212 209 182 165 163 157 169 176 180 191 195 192
339 330 319 315 310 302 293 285 282 282 286 285 287 286 283 281 277 277 278 273 270 267 260 253 250 246 240 231 227 219 209 212 209 202 186 167 174 173 187 185 195 184 196
316 300 297 297 295 292 289 288 288 286 283 281 278 276 275 276 281 283 280 270 267 266 265 260 254 249 248 243 237 226 215 214 213 212 207 200 197 188 180 182 177 172 202
285 280 278 276 276 276 276 278 281 284 285 286 281 275 273 272 280 282 279 271 264 262 262 262 258 250 243 245 246 240 231 226 220 215 219 216 198 190 185 186 189 188 196
281 278 276 276 278 281 281 281 284 285 286 286 286 283 281 278 280 281 281 275 265 260 256 255 256 254 244 239 239 241 240 235 229 224 227 222 202 193 194 195 193 175 87
289 289 294 302 305 305 301 298 298 295 290 286 285 283 281 282 283 284 283 276 269 263 257 252 250 252 249 244 238 238 242 243 241 231 227 220 211 197 187 178 172 170 170
305 315 322 324 319 313 308 306 304 300 294 292 288 286 285 284 285 286 284 277 270 266 261 253 248 248 249 246 238 234 237 237 227 229 228 224 211 204 195 191 185 187 175
326 323 319 318 314 306 302 299 298 295 292 289 287 285 282 281 283 283 282 275 267 265 261 257 250 252 251 248 240 233 236 232 218 218 220 214 203 200 202 198 194 191 186
323 316 311 306 301 298 293 293 291 290 289 287 286 285 282 282 284 284 284 281 277 269 261 257 251 255 254 252 246 239 236 232 220 214 216 216 213 209 202 191 185 185 177
315 308 303 299 294 291 289 291 290 286 285 287 287 288 289 289 291 294 295 294 291 285 273 264 258 254 255 256 252 245 236 225 215 213 215 217 213 201 186 174 161 129 100
307 306 304 303 299 293 288 288 288 286 284 284 284 284 284 283 283 284 284 288 290 292 291 283 277 268 261 252 245 244 230 218 212 214 213 205 189 186 188 184 178 165 146
306 305 305 301 298 296 291 285 286 278 277 284 281 278 281 281 276 278 277 275 276 277 286 289 277 264 254 246 239 228 220 211 209 208 202 195 191 190 189 183 176 172 172
307 307 305 302 300 297 296 293 289 290 291 291 289 289 288 288 292 290 287 283 281 278 278 274 272 261 254 246 237 223 213 209 206 202 196 192 189 187 181 174 173 177 179
299 301 300 298 297 297 297 298 298 297 294 294 294 293 292 293 293 292 288 283 277 273 269 264 265 260 252 248 236 219 211 206 199 195 191 186 181 177 173 171 174 180 183
297 295 294 292 293 294 295 296 297 299 301 298 297 296 298 299 299 297 293 288 273 264 256 254 254 255 245 238 227 213 203 195 192 189 184 179 174 172 172 175 178 181 180
299 296 294 294 295 296 297 297 297 297 297 299 299 301 304 305 303 299 299 289 274 264 255 244 241 238 226 217 208 198 191 187 183 180 177 173 171 170 172 174 175 177 172
298 297 301 300 301 302 303 304 305 307 308 310 311 312 312 309 305 306 307 301 290 276 265 249 230 215 203 196 187 179 176 177 175 172 168 166 166 167 167 167 169 169 169
301 302 305 306 306 307 309 310 312 315 318 320 322 325 337 337 330 329 330 327 320 302 281 247 207 181 174 168 167 167 165 163 159 156 155 156 157 157 157 158 158 156 153
307 307 307 307 309 312 315 315 317 320 323 324 326 330 339 342 337 337 338 338 339 341 346 6 43 57 80 118 138 142 141 140 141 143 144 145 145 146 146 148 149 149 146
307 308 310 311 313 317 320 322 324 327 329 331 332 336 341 345 346 347 346 347 353 360 8 22 35 40 44 50 63 100 127 137 140 143 143 143 144 146 148 148 147 145 144
304 308 314 319 324 326 326 327 329 333 335 337 340 343 347 350 352 354 356 358 3 10 17 25 35 44 51 54 56 64 80 102 118 134 139 142 142 143 142 141 140 140 140
307 310 317 324 328 329 329 331 334 338 341 345 348 350 352 355 360 3 4 7 13 20 24 26 28 35 48 56 62 73 96 107 112 118 125 131 133 133 133 132 132 133 135
315 320 325 328 330 332 335 336 339 342 345 349 352 353 356 360 3 6 9 13 17 21 25 28 31 39 45 54 66 80 91 99 101 106 110 116 119 120 122 123 127 130 134